Location: Nancy
(31.9435°N, 88.8425°W)
Time: 08:22:51
(UTC+00:00)

N. Korean satellite - Visible Passes

Search period start: 17 April 2021 00:00
Search period end: 27 April 2021 00:00
Orbit: 452 x 499 km, 97.2° (Epoch: 16 April)

Date Brightness Start Highest point End Pass type
(mag) Time Alt. Az. Time Alt. Az. Time Alt. Az.
17 Apr 9.8 10:17:37 10° ENE 10:19:10 12° E 10:20:42 10° ESE visible
19 Apr 7.8 10:55:11 10° NNE 10:58:36 44° E 11:01:57 10° S visible
20 Apr 9.5 10:29:01 10° NE 10:31:31 18° E 10:34:00 10° SE visible
23 Apr 8.9 10:40:48 10° NE 10:43:50 26° E 10:46:48 10° SSE visible
24 Apr 9.9 10:15:34 10° ENE 10:16:40 11° E 10:17:46 10° ESE visible
